Weather History for LIBH - September, 2013

Change the Weather History Date:

Wednesday, September 25, 2013

  Actual Average Record
Temperature  
Mean Temperature 66 °F -  
Max Temperature 77 °F - - ()
Min Temperature 55 °F - - ()
Cooling Degree Days 1    
Growing Degree Days 16 (Base 50)    
Moisture  
Dew Point 60 °F    
Average Humidity 74    
Maximum Humidity 94    
Minimum Humidity 45    
Precipitation  
Precipitation 0.00 in - - ()
Sea Level Pressure  
Sea Level Pressure 29.98 in    
Wind  
Wind Speed 4 mph ()    
Max Wind Speed 15 mph    
Max Gust Speed -    
Visibility 12.0 miles    
Events      
T = Trace of Precipitation, MM = Missing Value Source: Averaged Metar Reports

Daily Weather History Graph

Daily Weather History Graph

Search for Another Location

Airport or City:

Trip Planner

Search our weather history database for the weather conditions in past years. The results will help you decide how hot, cold, wet, or windy it might be!

Date:

Astronomy

Sep. 25, 2013 Rise Set
Actual Time 6:42 AM CEST 6:44 PM CEST
Civil Twilight 6:15 AM CEST 7:11 PM CEST
Nautical Twilight 5:43 AM CEST 7:43 PM CEST
Astronomical Twilight 5:11 AM CEST 8:15 PM CEST
Moon 10:35 PM CEST (9/25) 12:34 PM CEST (9/25)
Length of Visible Light 12h 56m
Length of Day
12h 01m
Waning Gibbous, 66% of the Moon is Illuminated
Sep 25
Waning Gibbous
Sep 27
Last Quarter
Oct 5
New
Oct 12
First Quarter
Oct 19
Full

Hourly Weather History & Observations

Time (CEST) Temp. Dew Point Humidity Pressure Visibility Wind Dir Wind Speed Gust Speed Precip Events Conditions
12:55 AM 62.6 °F 55.4 °F 77% 29.98 in - Calm Calm - N/A   Clear
1:55 AM 60.8 °F 55.4 °F 82% 29.98 in - Calm Calm - N/A   Clear
2:00 AM 61 °F 55 °F 73% 30.00 in 12 mi Calm Calm - -  
2:55 AM 59.0 °F 55.4 °F 88% 29.98 in - Calm Calm - N/A   Clear
3:55 AM 59.0 °F 51.8 °F 77% 29.98 in - WNW 2.3 mph - N/A   Clear
4:55 AM 59.0 °F 50.0 °F 72% 29.98 in - NW 2.3 mph - N/A   Clear
5:55 AM 57.2 °F 48.2 °F 72% 29.98 in - NW 2.3 mph - N/A   Clear
6:55 AM 57.2 °F 48.2 °F 72% 29.98 in - WNW 3.5 mph - N/A   Clear
7:55 AM 55.4 °F 46.4 °F 72% 29.98 in - WNW 4.6 mph - N/A   Clear
8:00 AM 55 °F 47 °F 68% 29.99 in 12 mi WNW 4.6 mph - -  
8:55 AM 60.8 °F 48.2 °F 63% 29.98 in - WNW 5.8 mph - N/A   Clear
9:55 AM 68.0 °F 53.6 °F 60% 29.98 in - Calm Calm - N/A   Clear
10:55 AM 69.8 °F 59.0 °F 68% 30.01 in - SE 3.5 mph - N/A   Clear
11:55 AM 71.6 °F 60.8 °F 69% 30.01 in - SSE 5.8 mph - N/A   Clear
12:55 PM 73.4 °F 60.8 °F 65% 30.01 in - SSE 6.9 mph - N/A   Clear
1:55 PM 77.0 °F 59.0 °F 54% 30.01 in - SSE 10.4 mph - N/A   Clear
2:00 PM 77 °F 60 °F 45% 30.01 in 12 mi SSE 10.4 mph - -  
2:55 PM 77.0 °F 64.4 °F 65% 29.98 in - SSE 11.5 mph - N/A   Clear
3:55 PM 77.0 °F 66.2 °F 69% 29.98 in - South 13.8 mph - N/A   Clear
4:55 PM 77.0 °F 68.0 °F 74% 29.98 in - South 15.0 mph - N/A   Clear
5:55 PM 77.0 °F 68.0 °F 74% 29.95 in - South 15.0 mph - N/A   Clear
6:55 PM 75.2 °F 68.0 °F 78% 29.95 in - South 13.8 mph - N/A   Clear
7:55 PM 73.4 °F 71.6 °F 94% 29.95 in - South 15.0 mph - N/A   Clear
8:00 PM 74 °F 71 °F 86% 29.96 in 12 mi South 15.0 mph - -  
8:55 PM 73.4 °F 69.8 °F 88% 29.95 in - South 11.5 mph - N/A   Clear
9:55 PM 73.4 °F 69.8 °F 88% 29.95 in - South 9.2 mph - N/A   Clear
10:55 PM 71.6 °F 69.8 °F 94% 29.95 in - South 8.1 mph - N/A   Clear
11:55 PM 68.0 °F 66.2 °F 94% 29.95 in - WSW 4.6 mph - N/A   Clear